St. Petersburg, FL

10:06 AM EDT on May 23, 2017 (GMT -0400)
Whitted

Weather History for KSPG - September, 2013

Change the Weather History Date:

Thursday, September 26, 2013

  Actual Average Record
Temperature  
Mean Temperature 83 °F -  
Max Temperature 88 °F 87 °F 97 °F (1985)
Min Temperature 79 °F 74 °F 68 °F (1956)
Cooling Degree Days 18    
Growing Degree Days 33 (Base 50)    
Moisture  
Dew Point 76 °F    
Average Humidity 82    
Maximum Humidity 96    
Minimum Humidity 63    
Precipitation  
Precipitation 0.07 in - - ()
Sea Level Pressure  
Sea Level Pressure 29.83 in    
Wind  
Wind Speed 9 mph (WNW)    
Max Wind Speed 16 mph    
Max Gust Speed 23 mph    
Visibility 10 miles    
Events Rain    
Averages and records for this station are not official NWS values.
T = Trace of Precipitation, MM = Missing Value Source: NWS Daily Summary

Daily Weather History Graph

Daily Weather History Graph

Search for Another Location

Airport or City:

Trip Planner

Search our weather history database for the weather conditions in past years. The results will help you decide how hot, cold, wet, or windy it might be!

Date:

Astronomy

Sep. 26, 2013 Rise Set
Actual Time 7:21 AM EDT 7:22 PM EDT
Civil Twilight 6:57 AM EDT 7:45 PM EDT
Nautical Twilight 6:30 AM EDT 8:12 PM EDT
Astronomical Twilight 6:03 AM EDT 8:39 PM EDT
Moon No Moon Rise 1:46 PM EDT (9/26)
Length of Visible Light 12h 47m
Length of Day
12h 01m
Waning Gibbous, 55% of the Moon is Illuminated
Sep 26
Waning Gibbous
Sep 26
Last Quarter
Oct 4
New
Oct 11
First Quarter
Oct 18
Full

Hourly Weather History & Observations

Time (EDT) Temp. Heat Index Dew Point Humidity Pressure Visibility Wind Dir Wind Speed Gust Speed Precip Events Conditions
12:38 AM 81.0 °F 88.6 °F 78.1 °F 91% 29.81 in 10.0 mi WSW 8.1 mph - N/A   Scattered Clouds
12:53 AM 81.0 °F 88.6 °F 78.1 °F 91% 29.81 in 10.0 mi WSW 9.2 mph - N/A   Partly Cloudy
1:53 AM 81.0 °F 88.6 °F 78.1 °F 91% 29.80 in 10.0 mi WSW 6.9 mph - N/A   Clear
2:16 AM 81.0 °F 89.2 °F 79.0 °F 94% 29.80 in 10.0 mi West 5.8 mph - N/A   Mostly Cloudy
2:35 AM 81.0 °F 88.6 °F 78.1 °F 91% 29.80 in 10.0 mi WSW 6.9 mph - N/A   Scattered Clouds
2:53 AM 80.1 °F 86.7 °F 79.0 °F 96% 29.80 in 10.0 mi West 5.8 mph - N/A   Clear
3:53 AM 81.0 °F 88.6 °F 78.1 °F 91% 29.79 in 10.0 mi West 8.1 mph - N/A   Clear
4:53 AM 81.0 °F 89.2 °F 79.0 °F 94% 29.79 in 10.0 mi West 6.9 mph - N/A   Clear
5:53 AM 81.0 °F 88.6 °F 78.1 °F 91% 29.79 in 10.0 mi West 8.1 mph - N/A   Clear
6:53 AM 82.0 °F 91.0 °F 78.1 °F 88% 29.80 in 10.0 mi West 8.1 mph - N/A   Mostly Cloudy
7:44 AM 82.0 °F 91.6 °F 79.0 °F 90% 29.81 in 10.0 mi West 5.8 mph - 0.00 in   Mostly Cloudy
7:53 AM 82.0 °F 91.6 °F 79.0 °F 90% 29.81 in 10.0 mi WNW 6.9 mph - 0.00 in   Mostly Cloudy
8:00 AM 82.0 °F 91.0 °F 78.1 °F 88% 29.81 in 10.0 mi West 8.1 mph - N/A   Scattered Clouds
8:53 AM 82.9 °F 92.8 °F 78.1 °F 85% 29.83 in 10.0 mi WNW 10.4 mph - N/A   Partly Cloudy
9:53 AM 84.0 °F 93.7 °F 77.0 °F 79% 29.84 in 10.0 mi West 9.2 mph - N/A   Clear
10:39 AM 84.9 °F 95.3 °F 77.0 °F 77% 29.85 in 10.0 mi West 13.8 mph 23.0 mph N/A   Mostly Cloudy
10:53 AM 84.9 °F 95.3 °F 77.0 °F 77% 29.85 in 10.0 mi West 16.1 mph - N/A   Mostly Cloudy
11:11 AM 84.9 °F 96.6 °F 78.1 °F 80% 29.86 in 10.0 mi NW 8.1 mph 17.3 mph N/A   Scattered Clouds
11:33 AM 84.0 °F 92.6 °F 75.9 °F 76% 29.86 in 1.5 mi WNW 12.7 mph 20.7 mph 0.06 in Rain Heavy Rain
11:44 AM 81.0 °F 87.3 °F 75.9 °F 85% 29.86 in 3.0 mi West 9.2 mph - 0.07 in Rain Light Rain
11:53 AM 81.0 °F 87.9 °F 77.0 °F 88% 29.86 in 10.0 mi West 5.8 mph - 0.07 in Rain Light Rain
12:53 PM 86.0 °F 96.0 °F 75.9 °F 72% 29.84 in 10.0 mi West 13.8 mph 19.6 mph 0.00 in   Partly Cloudy
1:53 PM 87.1 °F 95.4 °F 73.9 °F 65% 29.83 in 10.0 mi NW 15.0 mph 20.7 mph N/A   Mostly Cloudy
2:53 PM 86.0 °F 96.0 °F 75.9 °F 72% 29.81 in 10.0 mi North 13.8 mph - N/A   Mostly Cloudy
3:53 PM 87.1 °F 96.3 °F 75.0 °F 67% 29.80 in 10.0 mi North 12.7 mph - N/A   Scattered Clouds
4:53 PM 86.0 °F 93.8 °F 73.9 °F 67% 29.81 in 10.0 mi North 9.2 mph - N/A   Overcast
5:53 PM 84.9 °F 90.1 °F 71.1 °F 63% 29.82 in 10.0 mi North 10.4 mph - N/A   Partly Cloudy
6:53 PM 84.9 °F 90.1 °F 71.1 °F 63% 29.83 in 10.0 mi North 6.9 mph - N/A   Clear
7:53 PM 82.0 °F 87.4 °F 73.0 °F 74% 29.84 in 10.0 mi North 8.1 mph - N/A   Clear
8:53 PM 81.0 °F 86.2 °F 73.9 °F 79% 29.85 in 10.0 mi North 5.8 mph - N/A   Clear
9:53 PM 79.0 °F - 73.0 °F 82% 29.86 in 10.0 mi NNW 5.8 mph - N/A   Clear
10:53 PM 79.0 °F - 73.0 °F 82% 29.86 in 10.0 mi NNW 6.9 mph - N/A   Partly Cloudy
11:53 PM 79.0 °F - 73.9 °F 84% 29.87 in 10.0 mi NE 13.8 mph - N/A   Overcast